カタログに戻る

STARLINK-34652

運用中通信VLEO
NORAD 64772·PAYLOAD·🇺🇸 United States

打ち上げ Jul 8, 2025 から Cape Canaveral Space Force Station

Loading…

次のパス (今後24時間)

TLE

最新Source: CelesTrak SupGP

元期: Sep 15, 2026, 02:24 UTC

1 64772C 25147T   26258.10048611 -.00016052  00000+0 -47436-3 0  2589
2 64772  53.1567  78.8822 0001190  88.3215  98.8994 15.34391728    19

AllMySatでSTARLINK-34652をリアルタイム追跡

Download on the App Store